Location: Moscow
(55.7500°N, 37.5830°E)
Time: 04:11:24
(UTC+03:00)

Kosmos-337 - Pass Details

Date: 03 July 2022
Orbit: 1467 x 1552 km, 74.0° (Epoch: 13 August)

Event Time Altitude Azimuth Distance (km) Brightness Sun altitude
Rises 00:13:55 0° 327° (NNW) 4,735 ? -11.2°
Reaches altitude 10° 00:17:00 10° 331° (NNW) 3,751 ? -11.2°
Maximum altitude 00:26:06 59° 51° (NE) 1,754 ? -11.2°
Drops below altitude 10° 00:35:04 10° 130° (SE) 3,709 ? -11.3°
Sets 00:38:04 0° 134° (SE) 4,679 ? -11.3°
